Погода в Ананьеве

Украина / Одесская область     47°43′11″N   29°57′59″E
темп.,
°C
ветер,
м/с
пор.,
м/с
влажн.,
%
обл.,
%
осадки,
мм/ч
давл.,
гПа
погр.,
м
1 марта, пн
пн123:000сз4798100 0.1 1024314
02:00+1зсз2499100 1.8 1024185
05:00+1ссз1299100 0.4 102457
08:00+1ссв4698100 0.6 1026317
11:00+2ссв5884100 0.1 1028738
14:00+2ссв5783100 0.1 1030629
17:00+1с579298 0.1 1031507
20:00+1с478799 0.1 1032306
2 марта, вт
вт223:00+1ссз3686100 0.1 1033212
02:00+1сз2482100 0.1 103395
05:00+1зсз3689100 0.0 1031194
08:00+1з498260 0.0 1031369
11:00+6з697148 0.0 1029575
14:00+8з7106545 0.0 1027656
17:00+8зсз7126765 0.0 1023679
20:00+6зсз6167432 0.0 1023473
3 марта, ср
ср323:00+4сз6157921 0.0 1024578
02:00+4ссз8138125 0.0 1025791
05:00+3с71075100 0.1 1026938
08:00+3ссз6117083 0.1 1028704
11:00+6ссз67600 0.0 10291005
14:00+7ссз56520 0.0 10291121
17:00+7ссз35550 0.0 1028788
20:00+4зсз12660 0.0 102922
4 марта, чт
чт423:00+2юз227034 0.0 102822
02:00+1юз337246 0.0 102735
05:00+1ююз34750 0.0 102480
08:00+2ююз59700 0.0 1022297
11:00+8ююз69640 0.0 1019588
14:00+11ююз79590 0.0 1017789
17:00+10юз48640 0.0 1014250
20:00+6зюз34755 0.0 101442
5 марта, пт
пт523:00+5зюз22690 0.0 101422
02:00+4зюз22680 0.0 101322
05:00+4юз127014 0.0 101222
08:00+5ю23718 0.0 101275
11:00+10ююз465648 0.0 1011422
14:00+13ююз464767 0.0 1009688
17:00+12юз235373 0.0 100837
20:00+8зсз226258 0.0 100922